Weather History for Detroit Lakes, MN

Change the Weather History Date:

Monday, March 4, 2013

  Actual Average Record
Temperature  
Mean Temperature 26 °F -  
Max Temperature 28 °F 29 °F 50 °F (1987)
Min Temperature 23 °F 8 °F -26 °F (1952)
Degree Days  
Heating Degree Days 40    
Moisture  
Dew Point 21 °F    
Average Humidity 84    
Maximum Humidity 100    
Minimum Humidity 51    
Precipitation  
Precipitation 0.01 in - - ()
Sea Level Pressure  
Sea Level Pressure 29.88 in    
Wind  
Wind Speed 18 mph (SE)    
Max Wind Speed 24 mph    
Max Gust Speed 31 mph    
Visibility 5 miles    
Events Snow    
Averages and records for this station are not official NWS values.
T = Trace of Precipitation, MM = Missing Value Source: NWS Daily Summary

Daily Weather History Graph

Daily Weather History Graph

Search for Another Location

Airport:

Trip Planner

Search our weather history database for the weather conditions in past years. The results will help you decide how hot, cold, wet, or windy it might be!

Date:

Astronomy

Mar. 04, 2013 Rise Set
Actual Time 6:57 AM CST 6:13 PM CST
Civil Twilight 6:26 AM CST 6:44 PM CST
Nautical Twilight 5:51 AM CST 7:19 PM CST
Astronomical Twilight 5:16 AM CST 7:54 PM CST
Moon 1:23 AM CST (3/4) 10:40 AM CST (3/4)
Length of Visible Light 12h 17m
Length of Day
11h 16m
Waning Gibbous, 52% of the Moon is Illuminated
Mar 4
Waning Gibbous
Mar 4
Last Quarter
Mar 11
New
Mar 19
First Quarter
Mar 27
Full

Hourly Weather History & Observations

Time (CST) Temp. Windchill Dew Point Humidity Pressure Visibility Wind Dir Wind Speed Gust Speed Precip Events Conditions
12:15 AM 28.4 °F 15.1 °F 12.2 °F 51% 29.86 in 10.0 mi SE 20.7 mph 25.3 mph N/A   Overcast
12:36 AM 28.4 °F 14.4 °F 12.2 °F 51% 29.85 in 10.0 mi SE 23.0 mph 29.9 mph N/A   Mostly Cloudy
12:55 AM 26.6 °F 12.7 °F 12.2 °F 55% 29.85 in 10.0 mi SE 20.7 mph 28.8 mph N/A   Scattered Clouds
1:55 AM 26.6 °F 11.7 °F 14.0 °F 59% 29.85 in 10.0 mi SE 24.2 mph 28.8 mph N/A   Clear
2:15 AM 26.6 °F 13.4 °F 14.0 °F 59% 29.85 in 10.0 mi SE 18.4 mph 28.8 mph N/A   Clear
2:36 AM 26.6 °F 12.7 °F 15.8 °F 64% 29.84 in 10.0 mi SE 20.7 mph 28.8 mph N/A   Clear
2:55 AM 26.6 °F 12.7 °F 15.8 °F 64% 29.83 in 10.0 mi SE 20.7 mph 31.1 mph N/A   Clear
3:15 AM 26.6 °F 13.1 °F 15.8 °F 64% 29.83 in 10.0 mi SE 19.6 mph 28.8 mph N/A   Clear
3:36 AM 26.6 °F 12.0 °F 17.6 °F 69% 29.82 in 10.0 mi SE 23.0 mph 28.8 mph N/A   Clear
3:55 AM 26.6 °F 13.1 °F 19.4 °F 74% 29.82 in 7.0 mi SE 19.6 mph 25.3 mph N/A Snow Light Snow
4:15 AM 26.6 °F 12.7 °F 19.4 °F 74% 29.82 in 5.0 mi SE 20.7 mph 26.5 mph N/A Snow Light Snow
4:35 AM 24.8 °F 11.9 °F 21.2 °F 86% 29.83 in 3.0 mi SE 16.1 mph 25.3 mph N/A Snow Light Snow
4:55 AM 24.8 °F 12.4 °F 21.2 °F 86% 29.83 in 4.0 mi SE 15.0 mph 27.6 mph N/A Snow Light Snow
5:16 AM 26.6 °F 13.1 °F 21.2 °F 80% 29.83 in 3.0 mi SE 19.6 mph 26.5 mph N/A Snow Light Snow
5:35 AM 24.8 °F 12.4 °F 21.2 °F 86% 29.84 in 3.0 mi SE 15.0 mph 23.0 mph N/A Snow Light Snow
5:55 AM 24.8 °F 11.1 °F 21.2 °F 86% 29.84 in 3.0 mi SE 18.4 mph 23.0 mph N/A Snow Light Snow
6:16 AM 24.8 °F 11.1 °F 21.2 °F 86% 29.85 in 2.5 mi SE 18.4 mph 25.3 mph N/A Snow Light Snow
6:36 AM 24.8 °F 11.5 °F 21.2 °F 86% 29.84 in 1.8 mi SE 17.3 mph 25.3 mph N/A Snow Light Snow
6:55 AM 24.8 °F 12.9 °F 21.2 °F 86% 29.84 in 2.0 mi SE 13.8 mph - N/A Snow Light Snow
7:16 AM 24.8 °F 11.5 °F 21.2 °F 86% 29.85 in 2.5 mi SE 17.3 mph 24.2 mph N/A Snow Light Snow
7:36 AM 24.8 °F 11.1 °F 21.2 °F 86% 29.85 in 5.0 mi SE 18.4 mph 24.2 mph N/A   Overcast
7:55 AM 24.8 °F 10.7 °F 21.2 °F 86% 29.84 in 5.0 mi SE 19.6 mph 24.2 mph N/A Snow Light Snow
8:16 AM 23.0 °F 8.0 °F 21.2 °F 93% 29.84 in 1.5 mi SE 20.7 mph 28.8 mph N/A Snow Light Snow
8:35 AM 24.8 °F 11.1 °F 21.2 °F 86% 29.84 in 1.5 mi SE 18.4 mph 24.2 mph N/A Snow Light Snow
8:55 AM 24.8 °F 10.7 °F 21.2 °F 86% 29.84 in 3.0 mi SE 19.6 mph 27.6 mph N/A Snow Light Snow
9:16 AM 24.8 °F 10.7 °F 21.2 °F 86% 29.85 in 4.0 mi SE 19.6 mph 24.2 mph N/A Snow Light Snow
9:36 AM 24.8 °F 10.0 °F 21.2 °F 86% 29.84 in 4.0 mi SE 21.9 mph 29.9 mph N/A   Scattered Clouds
9:55 AM 24.8 °F 11.5 °F 21.2 °F 86% 29.84 in 7.0 mi SE 17.3 mph 27.6 mph N/A   Scattered Clouds
10:16 AM 24.8 °F 10.3 °F 21.2 °F 86% 29.84 in 5.0 mi SE 20.7 mph 26.5 mph N/A   Scattered Clouds
10:35 AM 24.8 °F 11.1 °F 21.2 °F 86% 29.85 in 5.0 mi SE 18.4 mph 27.6 mph N/A Snow Light Snow
10:56 AM 24.8 °F 10.3 °F 21.2 °F 86% 29.85 in 4.0 mi SE 20.7 mph 25.3 mph N/A Snow Light Snow
11:16 AM 24.8 °F 10.7 °F 21.2 °F 86% 29.85 in 4.0 mi SE 19.6 mph 24.2 mph N/A Snow Light Snow
11:35 AM 24.8 °F 10.3 °F 21.2 °F 86% 29.85 in 5.0 mi SE 20.7 mph 27.6 mph N/A   Mostly Cloudy
11:56 AM 24.8 °F 11.1 °F 21.2 °F 86% 29.86 in 7.0 mi SE 18.4 mph 26.5 mph N/A   Mostly Cloudy
12:16 PM 24.8 °F 10.7 °F 21.2 °F 86% 29.86 in 7.0 mi SE 19.6 mph 25.3 mph N/A   Mostly Cloudy
12:55 PM 24.8 °F 11.9 °F 21.2 °F 86% 29.86 in 2.5 mi SE 16.1 mph 26.5 mph N/A Snow Light Snow
1:16 PM 24.8 °F 11.9 °F 21.2 °F 86% 29.87 in 3.0 mi SE 16.1 mph - N/A Snow Light Snow
1:35 PM 24.8 °F 11.1 °F 21.2 °F 86% 29.87 in 7.0 mi SE 18.4 mph 23.0 mph N/A   Mostly Cloudy
1:55 PM 24.8 °F 11.9 °F 21.2 °F 86% 29.86 in 4.0 mi SE 16.1 mph - N/A   Mostly Cloudy
2:16 PM 24.8 °F 11.9 °F 21.2 °F 86% 29.86 in 1.8 mi SE 16.1 mph - N/A Snow Light Snow
2:35 PM 24.8 °F 14.0 °F 23.0 °F 93% 29.87 in 1.5 mi SE 11.5 mph 21.9 mph N/A Snow Light Snow
2:55 PM 24.8 °F 12.4 °F 23.0 °F 93% 29.87 in 0.8 mi SE 15.0 mph 21.9 mph N/A Snow Light Snow
3:35 PM 24.8 °F 12.4 °F 21.2 °F 86% 29.87 in 2.5 mi SE 15.0 mph 19.6 mph N/A Snow Light Snow
3:56 PM 24.8 °F 12.4 °F 21.2 °F 86% 29.88 in 4.0 mi SE 15.0 mph - N/A   Mostly Cloudy
4:15 PM 24.8 °F 11.9 °F 21.2 °F 86% 29.88 in 2.5 mi SE 16.1 mph - N/A Snow Light Snow
4:36 PM 24.8 °F 12.9 °F 21.2 °F 86% 29.88 in 2.0 mi SE 13.8 mph - N/A Snow Light Snow
4:56 PM 24.8 °F 12.4 °F 23.0 °F 93% 29.88 in 0.8 mi SE 15.0 mph - N/A Snow Snow
5:15 PM 24.8 °F 12.9 °F 23.0 °F 93% 29.88 in 1.0 mi SE 13.8 mph - 0.01 in Snow Light Snow
5:36 PM 24.8 °F 13.4 °F 23.0 °F 93% 29.88 in 3.0 mi SE 12.7 mph - 0.01 in Snow Light Snow
5:55 PM 24.8 °F 12.9 °F 23.0 °F 93% 29.90 in 2.0 mi SE 13.8 mph 17.3 mph 0.01 in Snow Light Snow
6:15 PM 24.8 °F 13.4 °F 23.0 °F 93% 29.91 in 2.0 mi SE 12.7 mph 18.4 mph N/A Snow Light Snow
6:36 PM 24.8 °F 14.0 °F 21.2 °F 86% 29.92 in 7.0 mi SE 11.5 mph - N/A Snow Light Snow
6:55 PM 24.8 °F 14.6 °F 21.2 °F 86% 29.93 in 10.0 mi SE 10.4 mph 18.4 mph N/A   Mostly Cloudy
7:15 PM 24.8 °F 14.0 °F 21.2 °F 86% 29.94 in 10.0 mi SE 11.5 mph - N/A   Mostly Cloudy
7:36 PM 24.8 °F 12.9 °F 21.2 °F 86% 29.95 in 10.0 mi SE 13.8 mph 18.4 mph N/A   Mostly Cloudy
7:55 PM 24.8 °F 12.9 °F 21.2 °F 86% 29.95 in 10.0 mi SE 13.8 mph - N/A   Mostly Cloudy
8:16 PM 24.8 °F 14.0 °F 21.2 °F 86% 29.94 in 10.0 mi SE 11.5 mph 18.4 mph N/A   Mostly Cloudy
8:35 PM 24.8 °F 13.4 °F 21.2 °F 86% 29.93 in 10.0 mi ESE 12.7 mph - N/A   Mostly Cloudy
8:55 PM 24.8 °F 12.4 °F 21.2 °F 86% 29.95 in 10.0 mi SE 15.0 mph 18.4 mph N/A   Mostly Cloudy
9:16 PM 24.8 °F 13.4 °F 21.2 °F 86% 29.97 in 10.0 mi SE 12.7 mph 17.3 mph N/A   Mostly Cloudy
9:35 PM 24.8 °F 16.1 °F 21.2 °F 86% 29.96 in 10.0 mi SE 8.1 mph - N/A   Mostly Cloudy
9:55 PM 24.8 °F 14.6 °F 23.0 °F 93% 29.96 in 7.0 mi ESE 10.4 mph - N/A   Overcast
10:16 PM 24.8 °F 15.3 °F 23.0 °F 93% 29.96 in 7.0 mi ESE 9.2 mph - N/A Snow Light Snow
10:35 PM 24.8 °F 14.6 °F 23.0 °F 93% 29.97 in 7.0 mi ESE 10.4 mph - N/A Snow Light Snow
10:55 PM 24.8 °F 16.1 °F 23.0 °F 93% 29.97 in 5.0 mi ESE 8.1 mph - N/A Snow Light Snow
11:16 PM 23.0 °F 11.7 °F 23.0 °F 100% 29.95 in 3.0 mi ESE 11.5 mph - N/A Snow Light Snow
11:35 PM 23.0 °F 12.4 °F 23.0 °F 100% 29.96 in 2.0 mi SE 10.4 mph - N/A Snow Light Snow
11:55 PM 23.0 °F 13.1 °F 23.0 °F 100% 29.96 in 3.0 mi SE 9.2 mph - N/A Snow Light Snow